Current Weather Conditions: station FHPF1

sailwx.info

Wind from 130 at 9 knots gusting 12

Air temperature 20.2° C

Last reported at 2018-Dec-14 17:54 UTC.
Time now 2018-Dec-14 19:21 UTC

Location: N 28°09' W 082°48'.
View on Google Maps.

See reports from other nearby stations

  
Tides and Currents Weather Stations Pressure Air Temp Water Temp Dewpoint Dewpoint Depression Visibility Wind Speed Wind Dir Waves Ship Positions
date/time (UTC)wind fromknots sea level pressurealtimeterstation pressurevisibilityair tempwater tempwave heightnotes
2018-Dec-14 17:54 130 9 gusting 12 20.2
2018-Dec-14 17:48 130 9 gusting 17 20.1
2018-Dec-14 17:42 110 9 gusting 13 19.9
2018-Dec-14 17:36 110 8 gusting 11 19.7
2018-Dec-14 16:54 18.6
2018-Dec-14 16:48 18.5
2018-Dec-14 16:42 18.8
2018-Dec-14 16:36 19.1
2018-Dec-14 15:54 180 7 gusting 13 18.9
2018-Dec-14 15:48 180 13 gusting 14 19.0
2018-Dec-14 15:42 180 12 gusting 13 19.4
2018-Dec-14 15:36 170 11 gusting 13 19.7
2018-Dec-14 15:30 180 11 gusting 13 19.6
2018-Dec-14 15:24 170 13 gusting 14 19.5
2018-Dec-14 15:18 170 14 gusting 18 19.8
2018-Dec-14 15:12 170 15 gusting 19 19.7
2018-Dec-14 15:06 170 18 gusting 20 19.7
2018-Dec-14 15:00 170 19 gusting 20 19.7
2018-Dec-14 14:54 160 19 gusting 21 19.8
2018-Dec-14 14:48 160 19 gusting 20 19.6
2018-Dec-14 14:42 170 18 gusting 20 19.7
2018-Dec-14 14:36 170 17 gusting 20 19.7
2018-Dec-14 14:30 160 17 gusting 20 19.8
2018-Dec-14 14:24 160 17 gusting 18 19.9
2018-Dec-14 14:18 160 18 gusting 20 19.5
2018-Dec-14 14:12 170 17 gusting 20 19.4
2018-Dec-14 14:06 170 17 gusting 19 19.7
2018-Dec-14 14:00 160 15 gusting 20 19.9
2018-Dec-14 13:54 150 14 gusting 17 20.1
2018-Dec-14 13:48 150 14 gusting 17 20.2
2018-Dec-14 13:42 160 14 gusting 17 20.3
2018-Dec-14 13:36 160 14 gusting 18 20.4
2018-Dec-14 13:30 160 13 gusting 17 20.4
2018-Dec-14 13:24 160 14 gusting 18 20.5
2018-Dec-14 13:18 160 13 gusting 15 20.5
2018-Dec-14 13:12 160 13 gusting 15 20.5
2018-Dec-14 13:06 160 13 gusting 15 20.7
2018-Dec-14 13:00 160 13 gusting 15 20.6
2018-Dec-14 12:54 150 13 gusting 19 20.8
2018-Dec-14 12:48 150 14 gusting 19 20.9
2018-Dec-14 12:42 150 14 gusting 18 20.8
2018-Dec-14 12:36 160 14 gusting 18 20.7
2018-Dec-14 12:30 150 17 gusting 20 20.8
2018-Dec-14 12:24 160 15 gusting 19 20.8
2018-Dec-14 12:18 160 17 gusting 20 20.8
2018-Dec-14 12:12 160 19 gusting 22 20.8
2018-Dec-14 12:06 160 17 gusting 21 20.7
2018-Dec-14 12:00 150 15 gusting 20 20.8
2018-Dec-14 11:54 150 15 gusting 20 20.6
2018-Dec-14 11:48 150 14 gusting 19 20.6
2018-Dec-14 11:42 150 15 gusting 18 20.5
2018-Dec-14 11:36 150 15 gusting 20 20.5
2018-Dec-14 11:30 150 15 gusting 20 20.5
2018-Dec-14 11:24 150 15 gusting 20 20.6
2018-Dec-14 11:18 150 15 gusting 19 20.5
2018-Dec-14 11:12 150 15 gusting 20 20.5
2018-Dec-14 11:06 150 15 gusting 20 20.6
2018-Dec-14 11:00 150 17 gusting 20 20.7
2018-Dec-14 10:54 150 15 gusting 20 20.6
2018-Dec-14 10:48 150 17 gusting 20 20.7
2018-Dec-14 10:42 150 18 gusting 21 20.7
2018-Dec-14 10:36 140 17 gusting 20 20.7
2018-Dec-14 10:30 140 14 gusting 19 20.6
2018-Dec-14 10:24 150 13 gusting 18 20.6
2018-Dec-14 10:18 150 13 gusting 17 20.6
2018-Dec-14 10:12 150 15 gusting 20 20.6
2018-Dec-14 10:06 150 14 gusting 19 20.7
2018-Dec-14 10:00 150 15 gusting 22 20.5
2018-Dec-14 09:54 150 13 gusting 13 20.4
2018-Dec-14 09:48 160 15 gusting 19 20.3
2018-Dec-14 09:42 160 14 gusting 20 20.4
2018-Dec-14 09:36 150 15 gusting 19 20.4
2018-Dec-14 09:30 150 15 gusting 21 20.3
2018-Dec-14 09:24 160 15 gusting 20 20.4
2018-Dec-14 09:18 160 17 gusting 22 20.5
2018-Dec-14 09:12 160 17 gusting 21 20.6
2018-Dec-14 09:06 160 15 gusting 19 20.4
2018-Dec-14 09:00 160 17 gusting 21 20.4
2018-Dec-14 08:54 160 17 gusting 21 20.4
2018-Dec-14 08:48 160 15 gusting 20 20.5
2018-Dec-14 08:42 150 15 gusting 20 20.5
2018-Dec-14 08:36 150 17 gusting 22 20.3
2018-Dec-14 08:30 150 18 gusting 20 20.2
2018-Dec-14 08:24 150 17 gusting 21 20.2
2018-Dec-14 08:18 160 15 gusting 20 20.1
2018-Dec-14 08:12 160 15 gusting 20 20.1
2018-Dec-14 08:06 160 14 gusting 19 20.1
2018-Dec-14 08:00 160 14 gusting 19 20.2
2018-Dec-14 07:54 160 15 gusting 20 20.1
2018-Dec-14 07:48 160 15 gusting 20 20.0
2018-Dec-14 06:54 160 18 gusting 21 20.2
2018-Dec-14 06:48 150 18 gusting 21 20.2
2018-Dec-14 06:42 150 18 gusting 20 20.2
2018-Dec-14 06:36 150 17 gusting 20 20.2
2018-Dec-14 06:30 150 17 gusting 20 20.0
2018-Dec-14 06:24 160 15 gusting 20 19.8
2018-Dec-14 06:18 150 18 gusting 20 20.0
2018-Dec-14 06:12 160 18 gusting 22 20.0
2018-Dec-14 06:06 150 20 gusting 22 20.2
2018-Dec-14 06:00 150 19 gusting 24 20.3
2018-Dec-14 05:54 160 18 gusting 22 20.3
2018-Dec-14 05:48 150 18 gusting 24 20.3
2018-Dec-14 05:42 150 18 gusting 22 20.4
2018-Dec-14 05:36 150 15 gusting 19 20.3
2018-Dec-14 05:30 150 15 gusting 20 20.5
2018-Dec-14 05:24 140 15 gusting 20 20.5
2018-Dec-14 05:18 140 18 gusting 22 20.5
2018-Dec-14 05:12 150 17 gusting 20 20.4
2018-Dec-14 05:06 150 18 gusting 21 20.5
2018-Dec-14 05:00 150 17 gusting 20 20.6
2018-Dec-14 04:54 150 18 gusting 22 20.7
2018-Dec-14 04:48 150 14 gusting 19 20.7
2018-Dec-14 04:42 150 13 gusting 17 20.9
2018-Dec-14 04:36 150 13 gusting 17 21.2
2018-Dec-14 04:30 150 13 gusting 19 21.2
2018-Dec-14 04:24 140 14 gusting 20 21.4
2018-Dec-14 04:18 150 17 gusting 22 21.4
2018-Dec-14 04:12 140 15 gusting 20 21.4
2018-Dec-14 04:06 140 17 gusting 21 21.5
2018-Dec-14 04:00 150 15 gusting 20 21.5
2018-Dec-14 03:54 140 14 gusting 19 21.4
2018-Dec-14 03:48 140 15 gusting 20 21.5
2018-Dec-14 03:42 140 15 gusting 20 21.6
2018-Dec-14 03:36 140 15 gusting 20 21.6
2018-Dec-14 03:30 140 17 gusting 20 21.6
2018-Dec-14 03:24 150 18 gusting 21 21.8
2018-Dec-14 03:18 150 15 gusting 20 21.9
2018-Dec-14 03:12 150 15 gusting 19 21.7
2018-Dec-14 03:06 150 17 gusting 21 21.9
2018-Dec-14 03:00 150 17 gusting 21 22.0
2018-Dec-14 02:54 150 15 gusting 20 22.0
2018-Dec-14 02:48 150 15 gusting 19 22.0
2018-Dec-14 02:42 140 13 gusting 18 21.9
2018-Dec-14 02:36 140 13 gusting 18 21.9
2018-Dec-14 02:30 140 13 gusting 20 21.7
2018-Dec-14 02:24 140 13 gusting 17 21.6
2018-Dec-14 02:18 140 13 gusting 18 21.5
2018-Dec-14 02:12 140 13 gusting 17 21.4
2018-Dec-14 02:06 130 13 gusting 18 21.5
2018-Dec-14 02:00 130 13 gusting 14 21.4
2018-Dec-14 01:54
2018-Dec-14 01:48
2018-Dec-14 01:42
2018-Dec-14 01:36
2018-Dec-14 01:30 130 11 gusting 13 21.1
2018-Dec-14 01:24 120 12 gusting 14 21.2
2018-Dec-14 01:18 120 12 gusting 13 21.2
2018-Dec-14 01:12 120 12 gusting 14 21.3
2018-Dec-14 01:06 120 12 gusting 15 21.3
2018-Dec-14 01:00 120 12 gusting 13 21.4
2018-Dec-14 00:54 120 11 gusting 14 21.4
2018-Dec-14 00:48 120 9 gusting 13 21.3
2018-Dec-14 00:42 120 7 gusting 9 21.4
2018-Dec-14 00:36 110 8 gusting 12 21.4
2018-Dec-14 00:30 110 7 gusting 12 21.3
2018-Dec-14 00:24 110 7 gusting 9 21.5
2018-Dec-14 00:18 110 8 gusting 11 21.6
2018-Dec-14 00:12 110 8 gusting 12 21.5
2018-Dec-14 00:06 110 8 gusting 12 21.6
2018-Dec-14 00:00 110 7 gusting 11 21.6
2018-Dec-13 23:54 110 8 gusting 13 21.6
2018-Dec-13 23:48 110 9 gusting 13 21.5
2018-Dec-13 23:42 100 8 gusting 11 21.5
2018-Dec-13 23:36 100 8 gusting 9 21.4
2018-Dec-13 22:54 090 4 gusting 4 21.9
2018-Dec-13 22:48 090 4 gusting 5 22.2
2018-Dec-13 22:42 090 4 gusting 5 22.2
2018-Dec-13 22:36 080 4 gusting 5 22.3
2018-Dec-13 22:30 080 4 gusting 5 22.4
2018-Dec-13 22:24 090 4 gusting 5 22.5
2018-Dec-13 22:18 090 4 gusting 4 22.4
2018-Dec-13 22:12 090 2 gusting 4 22.5
2018-Dec-13 22:06 080 4 gusting 5 22.5
2018-Dec-13 22:00 090 4 gusting 4 22.6
2018-Dec-13 21:54 110 2 gusting 4 23.0
2018-Dec-13 21:48 120 2 gusting 5 23.0
2018-Dec-13 21:42 120 2 gusting 6 22.8
2018-Dec-13 21:36 120 4 gusting 5 22.8
2018-Dec-13 21:30 130 4 gusting 6 22.9
2018-Dec-13 21:24 120 5 gusting 6 22.9
2018-Dec-13 21:18 130 6 gusting 7 22.8
2018-Dec-13 21:12 140 6 gusting 7 22.8
2018-Dec-13 21:06 140 6 gusting 8 22.9
2018-Dec-13 21:00 140 6 gusting 8 22.7
2018-Dec-13 20:54 140 6 gusting 8 22.7
2018-Dec-13 20:48 150 8 gusting 11 23.0
2018-Dec-13 20:42 140 8 gusting 11 22.9
2018-Dec-13 20:36 140 11 gusting 13 23.0
2018-Dec-13 20:30 140 9 gusting 13 22.8
2018-Dec-13 20:24 140 12 gusting 14 23.0
2018-Dec-13 20:18 140 13 gusting 18 23.0
2018-Dec-13 20:12 140 13 gusting 18 22.9
2018-Dec-13 20:06 150 13 gusting 17 22.9
2018-Dec-13 20:00 140 14 gusting 19 23.1
2018-Dec-13 19:54 140 14 gusting 19 22.9
2018-Dec-13 19:48 140 17 gusting 22 22.9
2018-Dec-13 19:42 150 13 gusting 19 22.6
2018-Dec-13 19:36 140 17 gusting 21 23.0
2018-Dec-13 19:30 150 13 gusting 19 22.6
2018-Dec-13 19:24 140 15 gusting 19 22.9
2018-Dec-13 19:18 140 15 gusting 20 22.5
2018-Dec-13 19:12 150 14 gusting 18 21.9
2018-Dec-13 19:06 150 14 gusting 20 22.3
2018-Dec-13 19:00 150 14 gusting 19 22.4
2018-Dec-13 18:54 140 14 gusting 20 22.2
2018-Dec-13 18:48 150 14 gusting 20 22.5
2018-Dec-13 18:42 140 17 gusting 20 22.4
2018-Dec-13 18:36 150 13 gusting 19 22.1
2018-Dec-13 18:30 140 13 gusting 17 22.3
2018-Dec-13 18:24 140 14 gusting 18 22.1
2018-Dec-13 18:18 130 13 gusting 19 22.2
2018-Dec-13 18:12 130 13 gusting 18 22.0
2018-Dec-13 18:06 140 13 gusting 15 21.7
2018-Dec-13 18:00 130 12 gusting 15 21.7
2018-Dec-13 17:54 130 13 gusting 19 21.6
2018-Dec-13 17:48 140 13 gusting 18 21.5
2018-Dec-13 17:42 130 13 gusting 14 21.6
2018-Dec-13 17:36 140 13 gusting 19 21.6
2018-Dec-13 17:30 140 13 gusting 20 21.7
2018-Dec-13 17:24 140 13 gusting 19 21.6
2018-Dec-13 17:18 120 13 gusting 18 21.8
2018-Dec-13 17:12 120 11 gusting 17 21.6
2018-Dec-13 17:06 120 13 gusting 18 21.5
2018-Dec-13 17:00 120 9 gusting 13 21.6
2018-Dec-13 16:54 120 13 gusting 15 21.4
2018-Dec-13 16:48 110 13 gusting 19 21.4
2018-Dec-13 16:42 120 13 gusting 19 21.3
2018-Dec-13 16:36 110 14 gusting 20 21.3
2018-Dec-13 16:30 110 13 gusting 18 21.2
2018-Dec-13 16:24 110 12 gusting 17 21.1
2018-Dec-13 16:18 110 13 gusting 18 20.9
2018-Dec-13 16:12 120 12 gusting 15 20.9
2018-Dec-13 16:06 110 13 gusting 15 20.8
2018-Dec-13 16:00 120 12 gusting 14 20.7
2018-Dec-13 15:54 120 12 gusting 15 20.3
2018-Dec-13 15:48 120 13 gusting 17 20.3
2018-Dec-13 15:42 120 12 gusting 17 20.1
2018-Dec-13 15:36 110 12 gusting 14 20.0
2018-Dec-13 15:30 110 11 gusting 17 19.9
2018-Dec-13 15:24 110 11 gusting 13 19.7
2018-Dec-13 15:18 110 11 gusting 14 19.4
2018-Dec-13 15:12 110 11 gusting 14 19.1
2018-Dec-13 15:06 100 13 gusting 15 18.6
2018-Dec-13 15:00 100 13 gusting 14 18.3
2018-Dec-13 14:54 110 13 gusting 17 18.1
2018-Dec-13 14:48 100 13 gusting 17 17.8
2018-Dec-13 14:42 100 13 gusting 14 17.3
2018-Dec-13 14:36 100 11 gusting 13 17.0
2018-Dec-13 14:30 100 11 gusting 13 16.7
2018-Dec-13 14:24 100 11 gusting 14 16.5
2018-Dec-13 14:18 100 11 gusting 12 16.4
2018-Dec-13 14:12 100 11 gusting 13 16.1
2018-Dec-13 14:06 100 9 gusting 12 16.0
2018-Dec-13 14:00 100 11 gusting 13 15.9
2018-Dec-13 13:54 100 11 gusting 13 15.8
2018-Dec-13 13:48 100 11 gusting 13 15.7
2018-Dec-13 13:42 100 12 gusting 14 15.6
2018-Dec-13 13:36 090 12 gusting 15 15.5
2018-Dec-13 13:30 100 12 gusting 14 15.4
2018-Dec-13 13:24 090 13 gusting 14 15.3
2018-Dec-13 13:18 090 13 gusting 15 15.3
2018-Dec-13 13:12 090 12 gusting 14 15.2
2018-Dec-13 13:06 090 13 gusting 14 15.0
2018-Dec-13 13:00 090 13 gusting 14 14.9
2018-Dec-13 12:54 090 13 gusting 17 14.7
2018-Dec-13 12:48 090 13 gusting 17 14.7
2018-Dec-13 12:42 090 12 gusting 14 14.6
2018-Dec-13 12:36 090 11 gusting 13 14.5
2018-Dec-13 12:30 090 11 gusting 13 14.4
2018-Dec-13 12:24 090 11 gusting 14 14.3
2018-Dec-13 12:18 090 12 gusting 15 14.4
2018-Dec-13 12:12 090 11 gusting 13 14.4
2018-Dec-13 12:06 090 12 gusting 14 14.3
2018-Dec-13 12:00 090 12 gusting 13 14.2
2018-Dec-13 11:54 090 12 gusting 14 14.1
2018-Dec-13 11:48 090 12 gusting 15 14.1
2018-Dec-13 11:42 090 12 gusting 14 14.0
2018-Dec-13 11:36 090 12 gusting 13 14.0
2018-Dec-13 11:30 090 13 gusting 15 14.0
2018-Dec-13 11:24 090 12 gusting 13 14.0
2018-Dec-13 11:18 080 13 gusting 14 14.0
2018-Dec-13 11:12 090 12 gusting 14 13.9
2018-Dec-13 11:06 090 12 gusting 13 13.9
2018-Dec-13 11:00 080 12 gusting 13 13.9
2018-Dec-13 10:54 090 13 gusting 14 14.0
2018-Dec-13 10:48 090 12 gusting 13 14.0
2018-Dec-13 10:42 090 12 gusting 15 13.9
2018-Dec-13 10:36 090 12 gusting 14 13.9
2018-Dec-13 10:30 090 12 gusting 14 14.0
2018-Dec-13 10:24 090 12 gusting 13 13.9
2018-Dec-13 10:18 090 12 gusting 13 13.9
2018-Dec-13 10:12 090 13 gusting 14 13.9
2018-Dec-13 10:06 090 13 gusting 15 13.9
2018-Dec-13 10:00 090 13 gusting 14 13.8
2018-Dec-13 09:54 090 13 gusting 17 13.8
2018-Dec-13 09:48 090 12 gusting 14 13.8
2018-Dec-13 09:42 090 12 gusting 13 13.8
2018-Dec-13 09:36 090 11 gusting 13 13.8
2018-Dec-13 09:30 090 11 gusting 12 13.8
2018-Dec-13 09:24 090 11 gusting 13 13.8
2018-Dec-13 09:18 090 11 gusting 13 13.7
2018-Dec-13 09:12 090 12 gusting 13 13.7
2018-Dec-13 09:06 080 11 gusting 12 13.7
2018-Dec-13 09:00 080 11 gusting 12 13.8
2018-Dec-13 08:54 080 11 gusting 13 13.8
2018-Dec-13 08:48 080 11 gusting 13 13.8
2018-Dec-13 08:42 090 11 gusting 14 13.8
2018-Dec-13 08:36 090 11 gusting 13 13.8
2018-Dec-13 07:54 090 11 gusting 12 13.8
2018-Dec-13 07:48 090 11 gusting 13 13.8
2018-Dec-13 07:42 090 8 gusting 11 13.7
2018-Dec-13 07:36 090 9 gusting 12 13.9
2018-Dec-13 07:30 090 9 gusting 12 14.0
2018-Dec-13 07:24 090 9 gusting 11 13.9
2018-Dec-13 07:18 090 9 gusting 13 13.9
2018-Dec-13 07:12 090 8 gusting 11 13.9
2018-Dec-13 07:06 100 8 gusting 11 13.9
2018-Dec-13 07:00 100 8 gusting 11 13.9
2018-Dec-13 06:54 090 8 gusting 9 14.0
2018-Dec-13 06:48 100 8 gusting 11 14.0
2018-Dec-13 06:42 100 8 gusting 11 13.9
2018-Dec-13 06:36 100 8 gusting 11 13.9
2018-Dec-13 06:30 100 9 gusting 11 14.0
2018-Dec-13 06:24 100 8 gusting 11 14.0
2018-Dec-13 06:18 100 8 gusting 11 14.0
2018-Dec-13 06:12 100 8 gusting 11 13.9
2018-Dec-13 06:06 100 7 gusting 11 14.0
2018-Dec-13 06:00 100 8 gusting 9 14.0
2018-Dec-13 05:54 110 8 gusting 11 14.0
2018-Dec-13 05:48 100 8 gusting 9 13.9
2018-Dec-13 05:42 100 7 gusting 9 13.9
2018-Dec-13 05:36 100 7 gusting 9 13.8
2018-Dec-13 05:30 100 8 gusting 9 13.9
2018-Dec-13 05:24 100 9 gusting 11 13.7
2018-Dec-13 05:18 100 9 gusting 12 13.6
2018-Dec-13 05:12 100 9 gusting 11 13.5
2018-Dec-13 05:06 100 9 gusting 12 13.4
2018-Dec-13 05:00 100 9 gusting 12 13.4
2018-Dec-13 04:54 100 8 gusting 11 13.3
2018-Dec-13 04:48 100 8 gusting 11 13.3
2018-Dec-13 04:42 100 8 gusting 9 13.4
2018-Dec-13 04:36 090 8 gusting 11 13.4
2018-Dec-13 04:30 090 8 gusting 9 13.4
2018-Dec-13 04:24 090 8 gusting 9 13.3
2018-Dec-13 04:18 100 8 gusting 11 13.1
2018-Dec-13 04:12 090 8 gusting 11 13.1
2018-Dec-13 04:06 090 8 gusting 11 13.1
2018-Dec-13 04:00 090 7 gusting 9 13.0
2018-Dec-13 03:54 090 7 gusting 9 12.8
2018-Dec-13 03:48 090 7 gusting 9 12.8
2018-Dec-13 03:42 090 7 gusting 9 12.5
2018-Dec-13 03:36 080 7 gusting 8 12.4
2018-Dec-13 03:30 090 6 gusting 7 12.3
2018-Dec-13 03:24 090 5 gusting 6 12.1
2018-Dec-13 03:18 090 4 gusting 6 11.9
2018-Dec-13 03:12 090 4 gusting 5 11.8
2018-Dec-13 03:06 090 1 gusting 4 11.8
2018-Dec-13 03:00 060 2 gusting 5 11.8
2018-Dec-13 02:54 060 1 gusting 2 11.9
2018-Dec-13 02:48 070 1 gusting 4 11.9
2018-Dec-13 01:54 030 6 gusting 7 12.2
2018-Dec-13 01:48 030 6 gusting 6 12.1
2018-Dec-13 01:42 050 6 gusting 6 12.1
2018-Dec-13 01:36 060 6 gusting 7 12.2
2018-Dec-13 01:30 060 6 gusting 8 12.4
2018-Dec-13 01:24 040 7 gusting 9 12.6
2018-Dec-13 01:18 030 8 gusting 11 12.5
2018-Dec-13 01:12 030 6 gusting 8 12.3
2018-Dec-13 01:06 040 6 gusting 7 12.2
2018-Dec-13 01:00 040 6 gusting 7 12.2
2018-Dec-13 00:54 040 6 gusting 7 12.2
2018-Dec-13 00:48 050 7 gusting 8 12.3
2018-Dec-12 23:54 030 8 gusting 11 13.1
2018-Dec-12 23:48 030 8 gusting 12 13.1
2018-Dec-12 22:54 040 6 gusting 8 13.1
2018-Dec-12 22:48 040 6 gusting 6 13.1
2018-Dec-12 22:42 040 6 gusting 7 13.2
2018-Dec-12 22:36 040 6 gusting 8 13.4
2018-Dec-12 22:30 030 6 gusting 8 13.5
2018-Dec-12 22:24 030 6 gusting 8 13.5
2018-Dec-12 22:18 020 8 gusting 9 13.6
2018-Dec-12 22:12 020 9 gusting 12 13.6
2018-Dec-12 22:06 020 8 gusting 12 13.7
2018-Dec-12 22:00 020 9 gusting 11 13.7
2018-Dec-12 21:54 020 9 gusting 11 13.7
2018-Dec-12 21:48 010 9 gusting 11 13.8
2018-Dec-12 21:42 010 8 gusting 9 13.8
2018-Dec-12 21:36 010 8 gusting 9 13.8
2018-Dec-12 21:30 010 7 gusting 9 13.8
2018-Dec-12 21:24 010 7 gusting 8 13.8
2018-Dec-12 21:18 010 7 gusting 8 14.0
2018-Dec-12 21:12 010 8 gusting 9 13.9
2018-Dec-12 21:06 010 8 gusting 11 14.0
2018-Dec-12 21:00 360 9 gusting 11 14.0
2018-Dec-12 20:54 360 9 gusting 12 14.2
2018-Dec-12 20:48 360 9 gusting 11 14.2
2018-Dec-12 20:42 360 9 gusting 12 14.1
2018-Dec-12 20:36 350 11 gusting 12 14.0
2018-Dec-12 20:30 350 11 gusting 12 14.0
2018-Dec-12 20:24 350 11 gusting 12 14.0
2018-Dec-12 20:18 350 11 gusting 12 13.9
2018-Dec-12 20:12 350 11 gusting 13 13.9
2018-Dec-12 20:06 350 12 gusting 13 13.8
2018-Dec-12 20:00 350 12 gusting 13 13.9
2018-Dec-12 19:54 350 12 gusting 13 13.9
2018-Dec-12 19:48 350 12 gusting 13 13.8
2018-Dec-12 19:42 360 12 gusting 13 13.9
2018-Dec-12 19:36 360 12 gusting 13 14.1
2018-Dec-12 19:30 360 12 gusting 13 14.0
2018-Dec-12 19:24 360 11 gusting 13 14.0
2018-Dec-12 19:18 360 11 gusting 12 14.0
2018-Dec-12 19:12 360 9 gusting 11 14.0
2018-Dec-12 19:06 360 9 gusting 11 13.9
2018-Dec-12 19:00 360 8 gusting 8 14.0